2023-057B (56309 NORAD) Tracking and Keplerian Element Data

This shows tracking and keplerian element data for the satellite.

Feedback or suggestion? Click here.




ElementValue
Catalog56309
Name2023-057B
Epoch Orbit211
Epoch Day126.49272646
Epoch Year2023
RAAN207.0387
Inclination9.987
Eccentricity0.0008232
Argument of Perigee200.3026
Mean Anonmoly159.6236
Mean Motion14.95097463
Decay Rate6.124E-05
L11 56309U 23057B 23126.49272646 .00006124 00000+0 48219-3 0 9993
L22 56309 9.9870 207.0387 0008232 200.3026 159.6236 14.95097463 2117



Live tracking and technical data element details for 2023-057B (NORAD 56309). 2023-057B can be tracked NOW for your location showing map with azimuth and elevation plus other details from your city location.







IsCatalogInMostPopularTable: catalog: 56309, numindb: 11
Update: records affected: 1



GetName: 56309 2023-057B

Hit Count: updated at: Wed, 07 Jun 2023 08:42:24 GMT